DLH8E EDDM-EIDW

Flight info

Callsign DLH8E
Flight time N/A
Altitude 38000
Route GIVMI6Q/08L GIVMI Y101 IBAGA DCT MASEK DCT MAPOX DCT RAVLO Y70 OTBED L60 PENIL UL28 LELDO M145 BAGSO BAGSO4L
Aircraft A20N/M-SDE2E3FGHIRWXY/LB1

Departure

Time 2026-04-30 19:22
Airport Munich Airport (EDDM)

Arrival

Time N/A
Airport Dublin Airport (EIDW)
Time Latitude Longitude Altitude Speed Heading
2026-04-30 18:45 48.35488 11.79312 1474 ft 0 kts 257°
2026-04-30 19:06 48.35492 11.79339 1463 ft 2 kts 257°
2026-04-30 19:07 48.35496 11.79370 1466 ft 2 kts 266°
2026-04-30 19:07 48.35496 11.79389 1473 ft 2 kts 272°
2026-04-30 19:08 48.35490 11.79426 1468 ft 2 kts 304°
2026-04-30 19:08 48.35474 11.79449 1461 ft 1 kts 348°
2026-04-30 19:08 48.35472 11.79450 1465 ft 0 kts 354°
2026-04-30 19:11 48.35491 11.79446 1463 ft 5 kts 353°
2026-04-30 19:11 48.35654 11.79418 1467 ft 11 kts 352°
2026-04-30 19:11 48.35713 11.79408 1470 ft 7 kts 353°
2026-04-30 19:12 48.35734 11.79404 1462 ft 3 kts 353°
2026-04-30 19:12 48.35742 11.79403 1466 ft 0 kts 353°
2026-04-30 19:14 48.35747 11.79402 1467 ft 3 kts 353°
2026-04-30 19:14 48.35784 11.79395 1461 ft 8 kts 353°
2026-04-30 19:14 48.35853 11.79383 1466 ft 12 kts 353°
2026-04-30 19:15 48.35926 11.79355 1463 ft 10 kts 339°
2026-04-30 19:15 48.36075 11.79300 1466 ft 11 kts 313°
2026-04-30 19:15 48.36083 11.79179 1466 ft 13 kts 263°
2026-04-30 19:16 48.36071 11.79030 1469 ft 15 kts 263°
2026-04-30 19:16 48.36059 11.78868 1462 ft 14 kts 264°
2026-04-30 19:16 48.36036 11.78556 1470 ft 14 kts 263°
2026-04-30 19:17 48.36024 11.78408 1464 ft 15 kts 263°
2026-04-30 19:17 48.35997 11.78057 1472 ft 18 kts 263°
2026-04-30 19:17 48.35982 11.77876 1470 ft 17 kts 264°
2026-04-30 19:18 48.35966 11.77646 1473 ft 14 kts 263°
2026-04-30 19:18 48.35948 11.77430 1465 ft 17 kts 263°
2026-04-30 19:18 48.35934 11.77251 1468 ft 13 kts 263°
2026-04-30 19:19 48.35928 11.77120 1471 ft 11 kts 277°
2026-04-30 19:19 48.35967 11.77022 1475 ft 7 kts 308°
2026-04-30 19:19 48.36005 11.76866 1475 ft 10 kts 292°
2026-04-30 19:20 48.36068 11.76813 1472 ft 12 kts 354°
2026-04-30 19:20 48.36160 11.76800 1472 ft 12 kts 359°
2026-04-30 19:20 48.36289 11.76975 1476 ft 15 kts 81°
2026-04-30 19:21 48.36328 11.77502 1475 ft 92 kts 83°
2026-04-30 19:21 48.36556 11.80520 2081 ft 168 kts 83°
2026-04-30 19:22 48.36818 11.83994 3996 ft 176 kts 84°
2026-04-30 19:22 48.37327 11.90470 6017 ft 244 kts 84°
2026-04-30 19:23 48.39791 11.98075 7263 ft 329 kts 33°
2026-04-30 19:24 48.44472 11.99272 8738 ft 352 kts 349°
2026-04-30 19:24 48.46659 11.97833 10241 ft 341 kts 327°
2026-04-30 19:24 48.49440 11.92045 12008 ft 356 kts 294°
2026-04-30 19:25 48.54005 11.83591 14294 ft 355 kts 329°
2026-04-30 19:26 48.58097 11.79349 15746 ft 359 kts 330°
2026-04-30 19:26 48.62262 11.75057 17161 ft 366 kts 330°
2026-04-30 19:26 48.64371 11.72873 17858 ft 369 kts 330°
2026-04-30 19:27 48.68638 11.68440 19142 ft 375 kts 330°
2026-04-30 19:27 48.72953 11.63945 20357 ft 379 kts 330°
2026-04-30 19:28 48.75105 11.61700 20945 ft 382 kts 330°
2026-04-30 19:28 48.79538 11.57067 22113 ft 387 kts 330°
2026-04-30 19:29 48.83980 11.52415 23250 ft 393 kts 330°
2026-04-30 19:29 48.86237 11.50047 23806 ft 396 kts 330°
2026-04-30 19:30 48.93100 11.42828 25180 ft 404 kts 331°
2026-04-30 19:30 48.97754 11.37918 26048 ft 410 kts 331°
2026-04-30 19:31 49.02489 11.32911 26902 ft 416 kts 332°
2026-04-30 19:31 49.04869 11.30390 27314 ft 418 kts 332°
2026-04-30 19:31 49.09682 11.25281 28089 ft 424 kts 332°
2026-04-30 19:32 49.12110 11.22699 28444 ft 427 kts 332°
2026-04-30 19:32 49.14554 11.20098 28806 ft 429 kts 332°
2026-04-30 19:32 49.17005 11.17486 29153 ft 432 kts 332°
2026-04-30 19:32 49.19473 11.14852 29497 ft 434 kts 332°
2026-04-30 19:33 49.21959 11.12196 29822 ft 437 kts 332°
2026-04-30 19:33 49.24424 11.09560 30148 ft 439 kts 332°
2026-04-30 19:33 49.26964 11.06839 30463 ft 441 kts 332°
2026-04-30 19:33 49.29488 11.04132 30755 ft 443 kts 332°
2026-04-30 19:34 49.31984 11.01453 31066 ft 445 kts 331°
2026-04-30 19:34 49.34521 10.98726 31366 ft 446 kts 331°
2026-04-30 19:34 49.39612 10.93244 32107 ft 445 kts 331°
2026-04-30 19:35 49.42144 10.90534 32517 ft 444 kts 331°
2026-04-30 19:35 49.44673 10.87840 32917 ft 442 kts 331°
2026-04-30 19:35 49.47196 10.85149 33308 ft 441 kts 331°
2026-04-30 19:35 49.49718 10.82456 33695 ft 439 kts 331°
2026-04-30 19:36 49.52220 10.79780 34078 ft 437 kts 331°
2026-04-30 19:36 49.54723 10.77108 34435 ft 436 kts 331°
2026-04-30 19:36 49.59696 10.71797 35020 ft 434 kts 331°
2026-04-30 19:37 49.62172 10.69147 35294 ft 433 kts 331°
2026-04-30 19:37 49.64644 10.66497 35558 ft 432 kts 330°
2026-04-30 19:37 49.67082 10.63879 35811 ft 432 kts 330°
2026-04-30 19:37 49.69574 10.61198 36065 ft 431 kts 330°
2026-04-30 19:38 49.72005 10.58581 36305 ft 430 kts 330°
2026-04-30 19:38 49.74463 10.55945 36539 ft 429 kts 332°
2026-04-30 19:38 49.76995 10.53520 36748 ft 427 kts 334°
2026-04-30 19:38 49.79531 10.51108 36967 ft 427 kts 334°
2026-04-30 19:39 49.82055 10.48697 37177 ft 426 kts 334°
2026-04-30 19:39 49.84579 10.46283 37372 ft 426 kts 334°
2026-04-30 19:39 49.87094 10.43873 37557 ft 426 kts 334°
2026-04-30 19:39 49.89617 10.41454 37752 ft 425 kts 334°
2026-04-30 19:40 49.92130 10.39041 37939 ft 425 kts 334°
2026-04-30 19:40 49.94646 10.36622 38111 ft 425 kts 333°
2026-04-30 19:40 49.97155 10.34207 38273 ft 424 kts 333°
2026-04-30 19:40 49.99666 10.31787 38388 ft 425 kts 333°
2026-04-30 19:41 50.04649 10.26977 38397 ft 423 kts 333°
2026-04-30 19:41 50.09662 10.22127 38394 ft 424 kts 333°